• In Uzbekistan
  • List of Countries
  • For 7 days
  • Water Temperature
  • Satellite Maps
  • Weather Map
  • Weather Widgets
  • user-avatar
    Login

    Hourly Weather Davras

    Today, 24 September, Monday

    Time Temperature Precipitation Wind Pressure Humidity
    00:00 +20°C° 0 mm 1 mps 676 mmHg 30%
    01:00 +20°C° 0 mm 1 mps 675 mmHg 31%
    02:00 +19°C° 0 mm 1 mps 675 mmHg 31%
    03:00 +19°C° 0 mm 1 mps 675 mmHg 31%
    04:00 +18°C° 0 mm 1 mps 675 mmHg 32%
    05:00 +18°C° 0 mm 1 mps 675 mmHg 32%
    06:00 +20°C° 0 mm 1 mps 675 mmHg 29%
    07:00 +23°C° 0 mm 1 mps 676 mmHg 25%
    08:00 +25°C° 0 mm 1 mps 676 mmHg 21%
    09:00 +27°C° 0 mm 1 mps 676 mmHg 20%
    10:00 +28°C° 0 mm 1 mps 677 mmHg 19%
    11:00 +30°C° 0 mm 2 mps 677 mmHg 18%
    12:00 +30°C° 0 mm 2 mps 676 mmHg 17%
    13:00 +31°C° 0 mm 2 mps 676 mmHg 17%
    14:00 +33°C° 0 mm 3 mps 676 mmHg 17%
    15:00 +31°C° 0 mm 2 mps 676 mmHg 18%
    16:00 +30°C° 0 mm 2 mps 675 mmHg 20%
    17:00 +29°C° 0 mm 2 mps 675 mmHg 22%
    18:00 +27°C° 0 mm 2 mps 674 mmHg 26%
    19:00 +25°C° 0 mm 1 mps 674 mmHg 30%
    20:00 +22°C° 0 mm 1 mps 674 mmHg 34%
    21:00 +22°C° 0 mm 1 mps 674 mmHg 35%
    22:00 +21°C° 0 mm 1 mps 674 mmHg 37%
    23:00 +21°C° 0 mm 1 mps 674 mmHg 38%

    Tomorrow, 25 September, Tuesday

    Time Temperature Precipitation Wind Pressure Humidity
    00:00 +20°C° 0 mm 1 mps 674 mmHg 39%
    01:00 +20°C° 0 mm 1 mps 673 mmHg 40%
    02:00 +19°C° 0 mm 1 mps 673 mmHg 41%
    03:00 +19°C° 0 mm 1 mps 673 mmHg 42%
    04:00 +19°C° 0 mm 1 mps 673 mmHg 43%
    05:00 +18°C° 0 mm 1 mps 672 mmHg 44%
    06:00 +20°C° 0 mm 1 mps 673 mmHg 40%
    07:00 +22°C° 0 mm 1 mps 674 mmHg 37%
    08:00 +24°C° 0 mm 2 mps 675 mmHg 33%
    09:00 +25°C° 0 mm 2 mps 675 mmHg 31%
    10:00 +27°C° 0 mm 2 mps 675 mmHg 29%
    11:00 +28°C° 0 mm 2 mps 675 mmHg 27%
    12:00 +29°C° 0 mm 2 mps 675 mmHg 26%
    13:00 +29°C° 0 mm 2 mps 675 mmHg 25%
    14:00 +29°C° 0 mm 2 mps 675 mmHg 24%
    15:00 +28°C° 0 mm 3 mps 675 mmHg 28%
    16:00 +28°C° 0 mm 4 mps 674 mmHg 31%
    17:00 +27°C° 0 mm 4 mps 674 mmHg 35%
    18:00 +23°C° 0 mm 4 mps 674 mmHg 42%
    19:00 +21°C° 0 mm 4 mps 674 mmHg 50%
    20:00 +19°C° 0 mm 4 mps 674 mmHg 57%
    21:00 +18°C° 0 mm 4 mps 674 mmHg 60%
    22:00 +17°C° 0 mm 3 mps 675 mmHg 63%
    23:00 +17°C° 0 mm 3 mps 675 mmHg 66%

    Day after tomorrow, 26 September, Wednesday

    Time Temperature Precipitation Wind Pressure Humidity
    00:00 +16°C° 0 mm 3 mps 674 mmHg 68%
    01:00 +14°C° 0 mm 3 mps 674 mmHg 70%
    02:00 +14°C° 0 mm 3 mps 674 mmHg 72%
    03:00 +13°C° 0 mm 3 mps 674 mmHg 73%
    04:00 +13°C° 0 mm 3 mps 674 mmHg 74%
    05:00 +12°C° 0 mm 3 mps 674 mmHg 76%
    06:00 +13°C° 0 mm 4 mps 674 mmHg 73%
    07:00 +13°C° 0 mm 4 mps 674 mmHg 69%
    08:00 +14°C° 0 mm 4 mps 674 mmHg 66%
    09:00 +15°C° 0 mm 4 mps 675 mmHg 62%
    10:00 +17°C° 0 mm 4 mps 675 mmHg 57%
    11:00 +18°C° 0 mm 4 mps 675 mmHg 52%
    12:00 +18°C° 0 mm 4 mps 675 mmHg 51%
    13:00 +19°C° 0 mm 4 mps 674 mmHg 49%
    14:00 +19°C° 0 mm 5 mps 674 mmHg 48%
    15:00 +17°C° 0 mm 5 mps 674 mmHg 52%
    16:00 +16°C° 0 mm 5 mps 673 mmHg 55%
    17:00 +15°C° 0 mm 5 mps 673 mmHg 58%
    18:00 +14°C° 0.1 mm 5 mps 673 mmHg 61%
    19:00 +13°C° 0.1 mm 5 mps 673 mmHg 64%
    20:00 +12°C° 0.1 mm 4 mps 673 mmHg 67%
    21:00 +12°C° 0.1 mm 4 mps 673 mmHg 68%
    22:00 +11°C° 0.1 mm 4 mps 673 mmHg 69%
    23:00 +11°C° 0.1 mm 4 mps 673 mmHg 70%

    27 September, Thursday

    Time Temperature Precipitation Wind Pressure Humidity
    00:00 +11°C° 0 mm 4 mps 673 mmHg 71%
    01:00 +10°C° 0 mm 4 mps 673 mmHg 72%
    02:00 +10°C° 0 mm 4 mps 672 mmHg 73%
    03:00 +10°C° 0 mm 4 mps 672 mmHg 74%
    04:00 +10°C° 0 mm 4 mps 672 mmHg 74%
    05:00 +10°C° 0 mm 4 mps 672 mmHg 75%
    06:00 +11°C° 0 mm 4 mps 672 mmHg 72%
    07:00 +10°C° 0 mm 5 mps 673 mmHg 69%
    08:00 +12°C° 0 mm 5 mps 673 mmHg 65%
    09:00 +14°C° 0 mm 5 mps 673 mmHg 60%
    10:00 +15°C° 0 mm 5 mps 674 mmHg 55%
    11:00 +17°C° 0 mm 5 mps 674 mmHg 49%
    12:00 +19°C° 0 mm 5 mps 674 mmHg 46%
    13:00 +20°C° 0 mm 5 mps 673 mmHg 42%
    14:00 +21°C° 0 mm 5 mps 673 mmHg 39%
    15:00 +21°C° 0 mm 5 mps 673 mmHg 40%
    16:00 +21°C° 0 mm 5 mps 673 mmHg 41%
    17:00 +20°C° 0 mm 4 mps 673 mmHg 42%
    18:00 +19°C° 0 mm 4 mps 673 mmHg 50%
    19:00 +17°C° 0 mm 3 mps 673 mmHg 58%
    20:00 +16°C° 0 mm 2 mps 673 mmHg 66%
    21:00 +16°C° 0 mm 2 mps 673 mmHg 70%
    22:00 +15°C° 0 mm 2 mps 673 mmHg 74%
    23:00 +15°C° 0 mm 2 mps 673 mmHg 78%

    28 September, Friday

    Time Temperature Precipitation Wind Pressure Humidity
    00:00 +14°C° 0 mm 2 mps 673 mmHg 81%
    01:00 +14°C° 0 mm 2 mps 673 mmHg 83%
    02:00 +14°C° 0 mm 2 mps 673 mmHg 86%
    03:00 +14°C° 0 mm 2 mps 673 mmHg 87%
    04:00 +14°C° 0 mm 2 mps 673 mmHg 87%
    05:00 +13°C° 0 mm 2 mps 673 mmHg 88%
    06:00 +14°C° 0 mm 2 mps 673 mmHg 83%
    07:00 +16°C° 0 mm 2 mps 674 mmHg 78%
    08:00 +17°C° 0 mm 3 mps 674 mmHg 73%
    09:00 +18°C° 0 mm 3 mps 674 mmHg 65%
    10:00 +20°C° 0 mm 4 mps 675 mmHg 58%
    11:00 +21°C° 0 mm 4 mps 675 mmHg 51%
    12:00 +22°C° 0 mm 5 mps 675 mmHg 47%
    13:00 +22°C° 0 mm 5 mps 674 mmHg 42%
    14:00 +23°C° 0 mm 5 mps 674 mmHg 38%
    15:00 +22°C° 0 mm 4 mps 674 mmHg 42%
    16:00 +21°C° 0 mm 4 mps 674 mmHg 46%
    17:00 +20°C° 0 mm 4 mps 673 mmHg 50%
    18:00 +18°C° 0 mm 3 mps 673 mmHg 59%
    19:00 +17°C° 0 mm 3 mps 673 mmHg 67%
    20:00 +15°C° 0 mm 2 mps 673 mmHg 76%
    21:00 +15°C° 0 mm 2 mps 673 mmHg 80%
    22:00 +14°C° 0 mm 2 mps 673 mmHg 84%
    23:00 +13°C° 0 mm 2 mps 673 mmHg 89%

    29 September, Saturday

    Time Temperature Precipitation Wind Pressure Humidity
    00:00 +13°C° 0 mm 2 mps 673 mmHg 90%
    01:00 +13°C° 0 mm 2 mps 673 mmHg 91%
    02:00 +12°C° 0 mm 2 mps 673 mmHg 92%
    03:00 +12°C° 0 mm 1 mps 672 mmHg 92%
    04:00 +12°C° 0 mm 1 mps 672 mmHg 93%
    05:00 +11°C° 0 mm 1 mps 672 mmHg 93%
    06:00 +12°C° 0 mm 2 mps 673 mmHg 86%
    07:00 +14°C° 0 mm 2 mps 673 mmHg 79%
    08:00 +15°C° 0 mm 2 mps 673 mmHg 72%
    09:00 +16°C° 0 mm 2 mps 674 mmHg 63%
    10:00 +18°C° 0 mm 3 mps 674 mmHg 55%
    11:00 +19°C° 0 mm 3 mps 674 mmHg 46%
    12:00 +20°C° 0 mm 3 mps 673 mmHg 44%
    13:00 +21°C° 0 mm 3 mps 673 mmHg 41%
    14:00 +21°C° 0 mm 3 mps 673 mmHg 39%
    15:00 +20°C° 0.1 mm 3 mps 673 mmHg 43%
    16:00 +20°C° 0.1 mm 3 mps 673 mmHg 47%
    17:00 +19°C° 0.1 mm 3 mps 672 mmHg 52%
    18:00 +18°C° 0.2 mm 2 mps 672 mmHg 60%
    19:00 +16°C° 0.2 mm 2 mps 672 mmHg 68%
    20:00 +15°C° 0.2 mm 2 mps 672 mmHg 77%
    21:00 +15°C° 0.6 mm 2 mps 672 mmHg 80%
    22:00 +14°C° 0.6 mm 1 mps 672 mmHg 83%
    23:00 +14°C° 0.6 mm 1 mps 672 mmHg 86%
    Show more